Location: Biltmore Gardens
(41.6070°N, 83.4666°W)
Time: 05:31:43
(UTC+00:00)

A-11 Canister half - Pass Details

Date: 19 April 2021
Orbit: 1526 x 1683 km, 47.3° (Epoch: 11 May)

Event Time Altitude Azimuth Distance (km) Brightness Sun altitude
Rises 02:08:14 0° 293° (WNW) 4,937 13.2 -19.3°
Reaches altitude 10° 02:11:24 10° 295° (WNW) 3,949 12.3 -19.8°
Maximum altitude 02:21:39 86° 25° (NNE) 1,679 9.1 -21.3°
Enters shadow 02:27:17 31° 113° (ESE) 2,591 9.6 -22.1°
